Regional Weather Roundup
Issued by NWS Cleveland, OH

Home | Current Version | Previous Version | Text Only | Print | Product List | Glossary On
Versions: 1 2 3 4 5 6 7 8 9 10 11 12 13 14 15 16 17 18 19 20 21 22 23 24 25 26 27 28 29 30 31 32 33 34 35 36 37 38 39 40 41 42 43 44 45 46 47 48 49 50
000
ASUS41 KCLE 022210
RWRCLE
OHIO REGIONAL WEATHER ROUNDUP
NATIONAL WEATHER SERVICE CLEVELAND, OH
600 PM EDT WED SEP 02 2015

NOTE: "FAIR" INDICATES FEW OR NO CLOUDS BELOW 12,000 FEET WITH NO
SIGNIFICANT WEATHER AND/OR OBSTRUCTIONS TO VISIBILITY.

OHZ001>008-015>018-024>027-034-035-043-044-022300-
   NORTHWEST OHIO

CITY           SKY/WX    TMP DP  RH WIND       PRES   REMARKS
DEFIANCE       SUNNY     89  68  49 VRB7      29.98F HX  93
FINDLAY        PTSUNNY   83  69  62 NE10      29.99R
TOLEDO EXPRESS MOSUNNY   82  72  71 SW3       29.96F
TOLEDO EXEC    PTSUNNY   85  67  54 SW12      29.96F
LIMA           PTSUNNY   88  68  51 W10       30.00F HX  91
$$

OHZ009>014-019>023-028>033-038-089-022300-
   NORTHEAST OHIO

CITY           SKY/WX    TMP DP  RH WIND       PRES   REMARKS
CLE-HOPKINS    MOSUNNY   87  67  51 W10       29.99F HX  90
CLE-LAKEFRONT  SUNNY     82  72  71 W5        29.96F
CUY CO. ARPT   PTSUNNY   84  73  70 W12       29.99F HX  91
LORAIN-ELYRIA  SUNNY     83  69  62 W6        29.98F
ASHTABULA      SUNNY     83  68  60 NW8       30.00S
AKRON-CANTON   PTSUNNY   83  67  58 SW12      30.00F
WOOSTER        MOSUNNY   85  69  58 NW6       30.01F
MANSFIELD      SUNNY     84  70  62 W5        30.02F
YOUNGSTOWN     PTSUNNY   76  69  79 SE6       30.00S
$$

OHZ042-051>053-060>062-070>072-077>081-022300-
  SOUTHWEST OHIO

CITY           SKY/WX    TMP DP  RH WIND       PRES   REMARKS
CINC-COVINGTON MOSUNNY   89  67  47 W10       30.02F HX  92
CINC-LUNKEN    MOSUNNY   89  67  47 W13       30.00F HX  92
HAMILTON       SUNNY     89  68  49 VRB3      30.02F HX  93
DAYTON         MOSUNNY   83  68  60 S8        30.03F
WRIGHT-PAT AFB MOSUNNY   82  69  65 S5        30.01F
DAYTON GENERAL MOSUNNY   81  69  67 CALM      30.02F
WILMINGTON     CLOUDY    75  67  76 S3        30.03F
$$

OHZ036-037-039>041-045>050-054>059-063>069-073>076-082>088-022300-
  CENTRAL AND SOUTHEAST OHIO

CITY           SKY/WX    TMP DP  RH WIND       PRES   REMARKS
COLUMBUS       PTSUNNY   75  70  84 S9        30.03S
OSU AIRPORT    PTSUNNY   78  68  71 S7        30.03
BOLTON FIELD   MOSUNNY   75  72  88 S6        30.05S
RICKENBACK AFB PTSUNNY   71  68  92 SW10      30.03F
NEWARK         PTSUNNY   77  67  71 W3        30.03S
MARION         SUNNY     84  71  65 S7        30.01F
LANCASTER      CLOUDY    74  68  81 W7        30.04R
ZANESVILLE     PTSUNNY   84  67  56 NW9       30.02S
NEW PHILLY     PTSUNNY   81  68  64 CALM      30.01F
$$



USA.gov is the U.S. government's official web portal to all federal, state and local government web resources and services.